Regional Weather Roundup
Issued by NWS Newport/Morehead, NC

Current Version | Previous Version | Text Only | Print | Product List | Glossary On
Versions: 1 2 3 4 5 6 7 8 9 10 11 12 13 14 15 16 17 18 19 20 21 22 23 24 25 26 27 28 29 30 31 32 33 34 35 36 37 38 39 40 41 42 43 44 45 46 47 48 49 50
000
ASUS42 KMHX 102010
RWRMHX
WEATHER ROUNDUP FOR EASTERN NORTH CAROLINA
NATIONAL WEATHER SERVICE NEWPORT/MOREHEAD CITY NC
400 PM EDT THU JUL 10 2014

NOTE: "FAIR" INDICATES FEW OR NO CLOUDS BELOW 12,000 FEET
WITH NO SIGNIFICANT WEATHER AND/OR OBSTRUCTIONS TO VISIBILITY

NCZ015>017-031-032-045>047-102-103-102100-
NORTH COAST

CITY           SKY/WX    TMP DP  RH WIND       PRES   REMARKS
EDENTON        LGT RAIN  78  74  88 N10       30.07R
ELIZABETH CITY CLOUDY    76  68  76 NW7       30.07R
KITTY HAWK     CLOUDY    80  72  77 N6        30.04F
MANTEO         CLOUDY    84  76  78 SW18      30.05F

$$

NCZ045>047-081-094-103-104-102100-
CENTRAL COAST

CITY           SKY/WX    TMP DP  RH WIND       PRES   REMARKS
FRISCO         PTSUNNY   85  76  74 SW14G20   30.08S
SWANQUARTER      N/A     88 N/A N/A S8G18     30.00S

$$

NCZ095-097-098-100-101-102100-
SOUTHERN COAST

CITY           SKY/WX    TMP DP  RH WIND       PRES   REMARKS
BEAUFORT       PTSUNNY   84  73  69 SW17G23   30.07S
CEDAR ISLAND     N/A     86 N/A N/A S14G25    30.09S
JACKSONVILLE   MOSUNNY   86  75  69 S16G24    30.04F
NEWPORT        NOT AVBL
PINEY ISLAND   PTCLDY    88  74  63 S15G24    30.05S
WILMINGTON     MOSUNNY   86  73  65 SW14G23   30.06S


$$

NCZ011>013-027>030-043-044-078>080-089-090>093-098-102100-
COASTAL PLAIN

CITY           SKY/WX    TMP DP  RH WIND       PRES   REMARKS
AHOSKIE        CLOUDY    70  68  94 S3        30.09F
CLINTON        LGT RAIN  77  70  80 SW5       30.05R
ELIZABETHTOWN  RAIN      72  70  95 CALM      30.08R
GOLDSBORO      TSTM      75  72  88 NW12      30.02R
GREENVILLE     PTSUNNY   79  73  83 N16       30.10R
HAVELOCK       PTSUNNY   85  71  63 S13G22    30.06S
KENANSVILLE    LGT RAIN  81  74  81 CALM      30.05R
KINSTON        NOT AVBL
NEW BERN       MOSUNNY   89  71  55 S13G21    30.05S
RICHLANDS      PTSUNNY   88  73  62 S10       30.03F
ROANOKE RAPIDS NOT AVBL
ROCKY MOUNT    LGT RAIN  72  70  93 E6        30.07R
WASHINGTON     MOSUNNY  N/A N/A N/A S5        30.03S
WHITEVILLE     CLOUDY    74  69  85 S7        30.04F

$$

AMZ130-135-150-152-154-156-158-170-250-252-270-ANZ085-086-088-633-658-670-102100-
MARINE OBSERVATIONS

STATION/POSITION TIME  TEMP    WIND        PRES    WAVE   SWELL
                       AIR SEA DIR/SP/G            HT/PER HT/PER
                 (UTC) (F)     (DEG/KT/KT) (MB)    (FT/S) (FT/S)
CHESAPEAKE LIGHT NOT AVBL
BUOY 44014       2000   77 77  180/ 10/ 10 1017.7    3/ 6   2/ 6
DUCK             2000   74 64  300/  6/  8 1017.3
2E DUCK          2000                        N/A     2/ 6
OREGON INLET     2000   82 84  180/ 19/ 23 1017.8
BUOY 44095       2000      80                N/A     4/ 6
HATTERAS CG      2000   85 82  180/  6/ 10 1018.8
DIAMOND BUOY     2000          VRB 17/ 21  1018.2    4/ 6   2/ 8
17S OCRACOKE INL NOT AVBL
CAPE LOOKOUT     1900   81     200/ 14/ 16 1018.2
BEAUFORT LAB     2000   82 83  210/ 10/ 15 1017.6
30 SE NEW RIVER  2000   82 82  200/ 17/ 21 1018.2    4/ 6
5 SE WRIGHTSVILL 1900   78 81  190/ 14/ 17 1018.6
FRYING PAN BUOY  NOT AVBL
BUOY 41001       NOT AVBL
BUOY 41002       1924   81 81  200/ 14/ 16 1021.9    3/10   2/10
BUOY 41004       2000   82 82  190/ 16/ 19 1017.0    4/ 5   2/ 9

$$


USA.gov is the U.S. government's official web portal to all federal, state and local government web resources and services.